Content
SEND FEEDBACK

Daily
Averages
Monthly
Summary
United States of America

SITKA, ALASKA


Home > North America > United States > Alaska
Elevation: 7 feet     Latitude: 57 03N     Longitude: 135 20W

WEATHER
 
SELECT A DAY
Number of Records: 231,738;   Date Range: 1/1/95 - 9/16/14
 
SHARE

PRINT THIS DATA

[ ← Previous Day ]
WEATHER ALMANAC - JANUARY 31, 2013
[ Next Day → ]
[ °C ]   °F
Weather ElementAverageHighLow
Temperature39.4 °F41 °F (11:43 am)37.4 °F (6:39 am)
Dewpoint38.8 °F41 °F (3:38 pm)37 °F (1:53 am)
Humidity97.8 %100 % (4:53 am)93 % (1:53 am)
Barometer29.96 in30.10 in (11:53 pm)29.81 in (1:53 am)
Wind Speed2.4 mph8.1 mph (6:53 am)
Weather ElementAverage
Visibility6.4 mi
Wind DirectionESE (104.1 °)

Weather ElementTotal
Precipitation0.01 in
Heating Degree Days25.8 (Base 65)
Averaged from 56 records on January 31, 2013
WEATHER CONDITIONS BREAKOUT
WIND DIRECTION BREAKOUT
WEATHER BY HOUR - JANUARY 31, 2013
[ °C ]   °F
Local TimeTemperatureDewpointHumidityBarometerVisibilityWind DirectionWind SpeedGust SpeedPrecipitationEventsConditions
1:53 AM39.0 °F37.0 °F93 %29.81 in10.0 miVariable4.6 mph0.00 inRainLight Rain
3:53 AM39.0 °F37.0 °F93 %29.82 in10.0 miNNW (330°)4.6 mph0.00 inOvercast
4:53 AM37.9 °F37.9 °F100 %29.83 in10.0 miCalmOvercast
5:53 AM37.9 °F37.9 °F100 %29.84 in10.0 miCalmOvercast
6:17 AM39.2 °F37.4 °F93 %29.84 in7.0 miNorth (350°)3.5 mphOvercast
6:39 AM37.4 °F37.4 °F100 %29.85 in7.0 miNNW (340°)5.8 mphOvercast
6:50 AM39.2 °F37.4 °F93 %29.85 in7.0 miNNW (330°)6.9 mphOvercast
6:53 AM39.0 °F37.9 °F96 %29.85 in7.0 miNNW (330°)8.1 mphOvercast
7:22 AM37.4 °F37.4 °F100 %29.86 in7.0 miCalmOvercast
7:53 AM37.9 °F37.0 °F97 %29.88 in8.0 miCalmOvercast
8:13 AM37.4 °F37.4 °F100 %29.88 in2.0 miEast (100°)4.6 mph0.00 inRainLight Rain
8:19 AM37.4 °F37.4 °F100 %29.89 in1.8 miEast (90°)4.6 mph0.00 inRainLight Rain
8:41 AM37.4 °F37.4 °F100 %29.89 in2.5 miEast (90°)6.9 mph0.00 inOvercast
8:53 AM37.9 °F37.9 °F100 %29.89 in4.0 miESE (110°)4.6 mph0.01 inOvercast
9:19 AM37.4 °F37.4 °F100 %29.91 in8.0 miCalmOvercast
9:33 AM39.2 °F39.2 °F100 %29.91 in9.0 miCalmOvercast
9:36 AM39.2 °F39.2 °F100 %29.91 in7.0 miCalmOvercast
9:53 AM39.0 °F37.9 °F96 %29.92 in3.0 miNNW (330°)5.8 mphOvercast
9:56 AM39.2 °F37.4 °F93 %29.92 in3.0 miNW (320°)4.6 mphOvercast
10:12 AM39.2 °F39.2 °F100 %29.93 in1.8 miNNW (330°)4.6 mphOvercast
10:16 AM39.2 °F39.2 °F100 %29.93 in1.5 miNNW (330°)4.6 mphOvercast
10:31 AM39.2 °F39.2 °F100 %29.93 in2.0 miNNW (330°)4.6 mphOvercast
10:36 AM39.2 °F39.2 °F100 %29.94 in3.0 miNNW (330°)4.6 mphOvercast
10:44 AM39.2 °F39.2 °F100 %29.94 in5.0 miNNW (340°)3.5 mphOvercast
10:53 AM39.9 °F39.9 °F100 %29.94 in6.0 miNorth (360°)3.5 mphOvercast
11:43 AM41.0 °F39.2 °F93 %29.95 in6.0 miCalmOvercast
11:51 AM41.0 °F39.2 °F93 %29.95 in5.0 miCalmOvercast
11:53 AM41.0 °F39.9 °F96 %29.96 in5.0 miCalmOvercast
12:00 PM39.2 °F39.2 °F100 %29.96 in7.0 miCalmOvercast
12:30 PM39.2 °F39.2 °F100 %29.97 in10.0 miCalmOvercast
12:53 PM41.0 °F39.9 °F96 %29.97 in10.0 miCalmOvercast
1:53 PM41.0 °F39.9 °F96 %30.00 in9.0 miCalmOvercast
2:21 PM41.0 °F39.2 °F93 %30.00 in2.0 miCalmOvercast
2:33 PM41.0 °F39.2 °F93 %30.01 in3.0 miCalmOvercast
2:40 PM41.0 °F39.2 °F93 %30.01 in3.0 miCalmOvercast
2:49 PM41.0 °F39.2 °F93 %30.01 in1.8 miCalmOvercast
2:53 PM41.0 °F39.9 °F96 %30.01 in1.5 miCalmOvercast
3:38 PM41.0 °F41.0 °F100 %30.01 in2.5 miEast (80°)4.6 mphOvercast
3:45 PM41.0 °F41.0 °F100 %30.01 in3.0 miEast (80°)3.5 mphOvercast
3:53 PM41.0 °F41.0 °F100 %30.01 in3.0 miCalmOvercast
4:03 PM41.0 °F41.0 °F100 %30.01 in1.8 miEast (80°)3.5 mphOvercast
4:13 PM41.0 °F41.0 °F100 %30.01 in3.0 miCalmOvercast
4:53 PM41.0 °F39.9 °F96 %30.01 in10.0 miCalmOvercast
5:48 PM39.2 °F39.2 °F100 %30.03 in10.0 miEast (100°)3.5 mphOvercast
5:53 PM39.9 °F39.9 °F100 %30.03 in10.0 miEast (100°)4.6 mphOvercast
6:19 PM39.2 °F39.2 °F100 %30.04 in10.0 miCalmOvercast
6:51 PM39.2 °F39.2 °F100 %30.04 in10.0 miESE (120°)3.5 mphOvercast
6:53 PM39.0 °F39.0 °F100 %30.04 in10.0 miEast (100°)3.5 mphOvercast
7:53 PM39.0 °F39.0 °F100 %30.05 in10.0 miESE (120°)4.6 mphOvercast
8:51 PM39.2 °F39.2 °F100 %30.04 in10.0 miESE (120°)4.6 mphOvercast
8:53 PM39.0 °F39.0 °F100 %30.04 in10.0 miESE (110°)4.6 mphOvercast
9:17 PM39.2 °F37.4 °F93 %30.05 in10.0 miCalmScattered Clouds
9:32 PM39.2 °F37.4 °F93 %30.06 in10.0 miCalmScattered Clouds
9:53 PM39.0 °F37.9 °F96 %30.06 in10.0 miCalmOvercast
10:53 PM37.9 °F37.9 °F100 %30.08 in10.0 miCalmOvercast
11:53 PM37.9 °F37.9 °F100 %30.10 in10.0 miEast (80°)3.5 mphOvercast
Hourly data recorded from PASI, located miles away from Sitka, Alaska







STORIES FROM OUR PARTNERS